Content
SEND FEEDBACK

Daily
Averages
Monthly
Summary
Italy

TURIN, ITALY


Home > Europe > Italy
Elevation: 941 feet     Latitude: 45 13N     Longitude: 007 39E

WEATHER
 
SELECT A DAY
Number of Records: 304,001;   Date Range: 7/1/96 - 7/27/14
 
SHARE

PRINT THIS DATA

[ ← Previous Day ]
WEATHER ALMANAC - FEBRUARY 3, 2013
[ Next Day → ]
[ °C ]   °F
Weather ElementAverageHighLow
Temperature39.7 °F50 °F (11:50 am)30.2 °F (8:20 am)
Dewpoint17.4 °F28.4 °F (12:50 am)5 °F (12:20 pm)
Humidity44.7 %81 % (12:50 am)16 % (12:20 pm)
Barometer29.84 in30.06 in (9:20 pm)29.53 in (12:50 am)
Wind Speed5.6 mph10.4 mph (12:50 pm)
Weather ElementAverage
Visibility6.2 mi
Wind DirectionSW (219.6 °)

Weather ElementTotal
Precipitation---
Heating Degree Days24.9 (Base 65)
Averaged from 46 records on February 3, 2013
WEATHER CONDITIONS BREAKOUT
WIND DIRECTION BREAKOUT
WEATHER BY HOUR - FEBRUARY 3, 2013
[ °C ]   °F
Local TimeTemperatureDewpointHumidityBarometerVisibilityWind DirectionWind SpeedGust SpeedPrecipitationEventsConditions
12:50 AM33.8 °F28.4 °F81 %29.53 inWSW (250°)3.5 mphClear
1:20 AM32.0 °F26.6 °F80 %29.53 inWNW (290°)5.8 mphClear
1:50 AM32.0 °F24.8 °F75 %29.56 inNW (310°)8.1 mphClear
2:20 AM33.8 °F23.0 °F65 %29.56 inNW (310°)6.9 mphClear
2:50 AM32.0 °F21.2 °F64 %29.56 inNW (310°)6.9 mphClear
3:20 AM32.0 °F23.0 °F69 %29.59 inNW (320°)4.6 mphClear
3:50 AM33.8 °F21.2 °F60 %29.59 inWNW (300°)4.6 mphClear
4:20 AM32.0 °F21.2 °F64 %29.62 inNNW (330°)8.1 mphClear
4:50 AM32.0 °F19.4 °F60 %29.62 inWNW (300°)5.8 mphClear
5:20 AM32.0 °F19.4 °F60 %29.62 inWNW (300°)9.2 mphClear
5:50 AM32.0 °F19.4 °F60 %29.65 inNW (320°)5.8 mphClear
6:20 AM32.0 °F19.4 °F60 %29.68 inEast (100°)4.6 mphClear
6:50 AM33.8 °F19.4 °F56 %29.71 inWNW (300°)4.6 mphClear
7:20 AM32.0 °F19.4 °F60 %29.74 inWest (270°)8.1 mphClear
7:50 AM32.0 °F17.6 °F55 %29.74 inNW (310°)5.8 mphClear
8:20 AM30.2 °F17.6 °F60 %29.77 inNorth (350°)3.5 mphClear
8:50 AM33.8 °F19.4 °F56 %29.80 inWSW (250°)3.5 mphClear
9:20 AM39.2 °F26.6 °F61 %29.80 inCalmClear
9:50 AM41.0 °F17.6 °F39 %29.86 inSSW (200°)4.6 mphClear
10:20 AM42.8 °F26.6 °F53 %29.86 inSW (220°)5.8 mphClear
10:50 AM46.4 °F23.0 °F40 %29.89 inSSW (200°)4.6 mphClear
11:20 AM48.2 °F15.8 °F27 %29.89 inSE (130°)4.6 mphClear
11:50 AM50.0 °F12.2 °F22 %29.92 inSSE (150°)5.8 mphClear
12:20 PM50.0 °F5.0 °F16 %29.92 inESE (120°)8.1 mphClear
12:50 PM50.0 °F12.2 °F22 %29.92 inEast (100°)10.4 mphClear
1:20 PM50.0 °F12.2 °F22 %29.92 inESE (110°)9.2 mphClear
1:50 PM50.0 °F10.4 °F20 %29.92 inSE (140°)4.6 mphClear
2:20 PM50.0 °F10.4 °F20 %29.92 in6.2 miCalmMostly Cloudy
2:50 PM50.0 °F15.8 °F26 %29.92 in6.2 miESE (110°)4.6 mphScattered Clouds
3:20 PM50.0 °F15.8 °F26 %29.92 in6.2 miESE (120°)4.6 mphScattered Clouds
3:50 PM50.0 °F14.0 °F24 %29.92 in6.2 miSE (130°)3.5 mphPartly Cloudy
4:50 PM50.0 °F14.0 °F24 %29.95 inSSE (160°)4.6 mphClear
5:20 PM48.2 °F14.0 °F25 %29.98 inSSE (160°)3.5 mphClear
5:50 PM46.4 °F14.0 °F27 %29.98 inSE (130°)8.1 mphClear
6:20 PM42.8 °F10.4 °F27 %29.98 inSouth (180°)6.9 mphClear
6:50 PM42.8 °F10.4 °F27 %29.98 inSW (220°)8.1 mphClear
7:20 PM41.0 °F14.0 °F33 %30.01 inWest (270°)9.2 mphClear
7:50 PM41.0 °F12.2 °F31 %30.04 inWNW (290°)4.6 mphClear
8:20 PM41.0 °F12.2 °F31 %30.04 inNW (310°)5.8 mphClear
8:50 PM37.4 °F17.6 °F45 %30.04 inCalmClear
9:20 PM37.4 °F17.6 °F45 %30.06 inWest (260°)4.6 mphClear
9:50 PM35.6 °F17.6 °F48 %30.06 inWest (260°)4.6 mphClear
10:20 PM35.6 °F17.6 °F48 %30.04 inNW (310°)10.4 mphClear
10:50 PM35.6 °F17.6 °F48 %30.04 inWNW (290°)6.9 mphClear
11:20 PM35.6 °F17.6 °F48 %30.06 inWNW (290°)6.9 mphClear
11:50 PM35.6 °F15.8 °F44 %30.04 inNW (320°)4.6 mphClear
Hourly data recorded from LIMF, located miles away from Turin, Italy







STORIES FROM OUR PARTNERS